Zurück zum Katalog

STARLINK-1333

AktivKommunikationVLEO
NORAD 45580·PAYLOAD·🇺🇸 United States

Gestartet Apr 22, 2020 von Cape Canaveral Space Force Station

Loading…

Nächste Überflüge (nächste 24 Stunden)

TLE

AktuellSource: CelesTrak SupGP

Epoche: Sep 14, 2026, 21:07 UTC

1 45580C 20025BB  26257.88034722  .00068478  00000+0  14713-2 0  2574
2 45580  53.1518 271.2168 0003575  54.5255 117.4076 15.44055192    13

Verfolge STARLINK-1333 in Echtzeit mit AllMySat

Download on the App Store